This is the latest recevied weather packets stored in our database for station/object Aulendorf. If no packets are shown the sender has not sent any weather packets the latest 10 day(s).
| Time | Temp. | Humidity | Pressure | Rain* | Wind** | Luminosity | Snow |
|---|---|---|---|---|---|---|---|
| 1777595529 | 7.22° C | 41% | 1024.3 hPa | 0 mm | - | - | - |
| 1777593730 | 7.22° C | 40% | 1024.2 hPa | 0 mm | - | - | - |
| 1777591929 | 7.78° C | 39% | 1024.4 hPa | 0 mm | - | - | - |
| 1777590129 | 8.33° C | 37% | 1024.4 hPa | 0 mm | - | - | - |
| 1777588329 | 8.33° C | 37% | 1024.3 hPa | 0 mm | - | - | - |
| 1777586529 | 8.33° C | 37% | 1024.4 hPa | 0 mm | - | - | - |
| 1777584729 | 8.89° C | 36% | 1024.4 hPa | 0 mm | - | - | - |
| 1777582929 | 8.89° C | 37% | 1024.2 hPa | 0 mm | - | - | - |
| 1777581135 | 9.44° C | 37% | 1024.1 hPa | 0 mm | - | - | - |
| 1777579329 | 10° C | 35% | 1024 hPa | 0 mm | - | - | - |
| 1777577529 | 10.56° C | 34% | 1023.7 hPa | 0 mm | - | - | - |
| 1777575735 | 11.11° C | 31% | 1023.5 hPa | 0 mm | - | - | - |
| 1777573930 | 12.22° C | 29% | 1023.2 hPa | 0 mm | - | - | - |
| 1777572132 | 12.78° C | 26% | 1023 hPa | 0 mm | - | - | - |
| 1777570330 | 13.33° C | 26% | 1022.8 hPa | 0 mm | - | - | - |
| 1777568531 | 14.44° C | 22% | 1022.7 hPa | 0 mm | - | - | - |
| 1777566730 | 15° C | 21% | 1022.8 hPa | 0 mm | - | - | - |
| 1777564930 | 15.56° C | 23% | 1022.6 hPa | 0 mm | - | - | - |
| 1777563132 | 15.56° C | 23% | 1022.5 hPa | 0 mm | - | - | - |
| 1777559530 | 16.11° C | 21% | 1022.6 hPa | 0 mm | - | - | - |
| 1777557730 | 15.56° C | 23% | 1022.7 hPa | 0 mm | - | - | - |
| 1777555931 | 16.11° C | 28% | 1022.7 hPa | 0 mm | - | - | - |
| 1777554130 | 15.56° C | 28% | 1022.6 hPa | 0 mm | - | - | - |
| 1777552332 | 15.56° C | 31% | 1022.8 hPa | 0 mm | - | - | - |
| 1777550530 | 15.56° C | 33% | 1022.7 hPa | 0 mm | - | - | - |
* Rain since midnight (hover to see other rain measurements)
** Current wind speed in m/s (hover to see current wind gust speed)